Powrót do katalogu

COSMOS 1748

AktywnyMilitariaLEO
NORAD 16758·PAYLOAD·🇷🇺 Russia

Wystrzelony Jun 6, 1986 z Plesetsk Cosmodrome

Loading…

Następne Przeloty (najbliższe 24 godziny)

TLE

ŚwieżeSource: Space-Track

Epoka: Sep 14, 2026, 05:05 UTC

1 16758U 86042A   26257.21195786  .00000004  00000-0  13183-3 0  9991
2 16758  74.0196 175.3465 0010990 316.5098 115.3601 12.50789433838961

Śledź COSMOS 1748 w czasie rzeczywistym z AllMySat

Download on the App Store